This demonstration page uses our WeatherBlox Daily Observations layout. Learn more.

38.88101, -77.10428

Hourly Observations for December 3, 2019

Temp ( °F °C ) Dew Point ( °F °C ) Humidity (%) Winds ( mph kmh ) Pressure ( in mb ) Visibility ( mi km ) Precip ( " mm )
12:52 am 00:52 Partly Cloudy 39 3.9 30 -1.1 70 70 NNW 13 20 29.71 1006 10 16.09344 0 0
1:52 am 01:52 Mostly Cloudy 40 4.4 30 -1.1 68 68 NNW 15 24 29.71 1006 10 16.09344 0 0
2:52 am 02:52 Mostly Cloudy 40 4.4 30 -1.1 68 68 WNW 9 15 29.71 1006 10 16.09344 0 0
3:52 am 03:52 Mostly Cloudy 40 4.4 30 -1.1 68 68 WNW 10 17 29.68 1005 10 16.09344 0 0
4:52 am 04:52 Mostly Clear 40 4.4 29 -1.7 65 65 NW 16 26 29.68 1005 10 16.09344 0 0
5:52 am 05:52 Partly Cloudy 40 4.4 29 -1.7 65 65 NW 18 30 29.68 1005 10 16.09344 0 0
6:52 am 06:52 Mostly Cloudy 40 4.4 30 -1.1 68 68 NW 15 24 29.71 1006 10 16.09344 0 0
7:52 am 07:52 Mostly Cloudy 41 5 29 -1.7 62 62 NW 21 33 29.74 1007 10 16.09344 0 0
8:52 am 08:52 Partly Cloudy 43 6.1 29 -1.7 58 58 NW 22 35 29.74 1007 10 16.09344 0 0
9:52 am 09:52 Mostly Cloudy 44 6.7 29 -1.7 55 55 NW 24 39 29.74 1007 10 16.09344 0 0
10:52 am 10:52 Mostly Cloudy 46 7.8 29 -1.7 51 51 NW 20 31 29.71 1006 10 16.09344 0 0
11:52 am 11:52 Partly Cloudy 47 8.3 29 -1.7 50 50 NW 20 31 29.71 1006 10 16.09344 0 0
12:52 pm 12:52 Partly Cloudy 48 8.9 29 -1.7 48 48 NW 15 24 29.71 1006 10 16.09344 0 0
1:52 pm 13:52 Partly Cloudy 49 9.4 29 -1.7 46 46 WNW 15 24 29.68 1005 10 16.09344 0 0
2:52 pm 14:52 Mostly Cloudy 48 8.9 28 -2.2 46 46 NW 12 19 29.68 1005 10 16.09344 0 0
3:52 pm 15:52 Mostly Cloudy 47 8.3 29 -1.7 50 50 NNW 15 24 29.71 1006 10 16.09344 0 0
4:52 pm 16:52 Mostly Cloudy 44 6.7 28 -2.2 53 53 NW 9 15 29.68 1005 10 16.09344 0 0
5:52 pm 17:52 Partly Cloudy 43 6.1 28 -2.2 56 56 NNW 14 22 29.68 1005 10 16.09344 0 0
6:52 pm 18:52 Partly Cloudy 42 5.6 28 -2.2 58 58 NNW 12 19 29.71 1006 10 16.09344 0 0
7:52 pm 19:52 Mostly Clear 41 5 28 -2.2 60 60 NNW 12 19 29.71 1006 10 16.09344 0 0
8:52 pm 20:52 Mostly Cloudy 40 4.4 28 -2.2 63 63 N 6 9 29.68 1005 10 16.09344 0 0
9:52 pm 21:52 Mostly Cloudy 40 4.4 28 -2.2 63 63 N 5 7 29.68 1005 10 16.09344 0 0
10:52 pm 22:52 Cloudy 41 5 28 -2.2 60 60 NW 6 9 29.68 1005 10 16.09344 0 0
11:52 pm 23:52 Cloudy 39 3.9 28 -2.2 65 65 W 5 7 29.68 1005 10 16.09344 0 0

Powered by AerisWeather